• In Uzbekistan
  • List of Countries
  • For 7 days
  • Water Temperature
  • Satellite Maps
  • Weather Map
  • Weather Widgets
  • user-avatar
    Login

    Hourly Weather Malanje

    Today, 26 May, Friday

    Time Temperature Precipitation Wind Pressure Humidity
    00:00 +19°C° 0 mm 2 mps 665 mmHg 69%
    01:00 +19°C° 0 mm 2 mps 665 mmHg 74%
    02:00 +18°C° 0 mm 2 mps 664 mmHg 79%
    03:00 +18°C° 0 mm 1 mps 664 mmHg 85%
    04:00 +18°C° 0 mm 1 mps 664 mmHg 90%
    05:00 +19°C° 0 mm 1 mps 664 mmHg 87%
    06:00 +20°C° 0 mm 1 mps 665 mmHg 84%
    07:00 +20°C° 0 mm 1 mps 666 mmHg 80%
    08:00 +22°C° 0 mm 0 mps 667 mmHg 69%
    09:00 +25°C° 0 mm 0 mps 668 mmHg 58%
    10:00 +28°C° 0 mm 0 mps 668 mmHg 47%
    11:00 +30°C° 0 mm 1 mps 668 mmHg 45%
    12:00 +31°C° 0 mm 1 mps 668 mmHg 42%
    13:00 +32°C° 0 mm 1 mps 667 mmHg 39%
    14:00 +31°C° 0.3 mm 1 mps 667 mmHg 42%
    15:00 +30°C° 0.3 mm 1 mps 666 mmHg 44%
    16:00 +30°C° 0.3 mm 1 mps 666 mmHg 46%
    17:00 +28°C° 0.1 mm 1 mps 665 mmHg 53%
    18:00 +25°C° 0.1 mm 1 mps 665 mmHg 60%
    19:00 +23°C° 0.1 mm 2 mps 665 mmHg 67%
    20:00 +23°C° 0.1 mm 2 mps 666 mmHg 69%
    21:00 +23°C° 0.1 mm 2 mps 666 mmHg 71%
    22:00 +23°C° 0.1 mm 2 mps 667 mmHg 73%
    23:00 +21°C° 0 mm 2 mps 666 mmHg 77%

    Tomorrow, 27 May, Saturday

    Time Temperature Precipitation Wind Pressure Humidity
    00:00 +20°C° 0 mm 2 mps 666 mmHg 81%
    01:00 +19°C° 0 mm 2 mps 666 mmHg 85%
    02:00 +18°C° 0 mm 2 mps 665 mmHg 88%
    03:00 +17°C° 0 mm 2 mps 665 mmHg 91%
    04:00 +17°C° 0 mm 2 mps 665 mmHg 94%
    05:00 +17°C° 0.1 mm 2 mps 665 mmHg 93%
    06:00 +17°C° 0.1 mm 2 mps 666 mmHg 91%
    07:00 +18°C° 0.1 mm 2 mps 667 mmHg 90%
    08:00 +22°C° 0.1 mm 1 mps 667 mmHg 80%
    09:00 +24°C° 0.1 mm 1 mps 668 mmHg 69%
    10:00 +27°C° 0.1 mm 1 mps 669 mmHg 59%
    11:00 +28°C° 0.4 mm 1 mps 669 mmHg 56%
    12:00 +29°C° 0.4 mm 1 mps 668 mmHg 52%
    13:00 +30°C° 0.4 mm 1 mps 667 mmHg 49%
    14:00 +30°C° 0.3 mm 1 mps 667 mmHg 49%
    15:00 +30°C° 0.3 mm 1 mps 667 mmHg 48%
    16:00 +29°C° 0.3 mm 1 mps 666 mmHg 48%
    17:00 +27°C° 0.3 mm 1 mps 666 mmHg 56%
    18:00 +24°C° 0.3 mm 1 mps 666 mmHg 65%
    19:00 +22°C° 0.3 mm 1 mps 665 mmHg 74%
    20:00 +22°C° 0.3 mm 1 mps 666 mmHg 76%
    21:00 +21°C° 0.3 mm 1 mps 666 mmHg 78%
    22:00 +21°C° 0.3 mm 1 mps 667 mmHg 79%
    23:00 +21°C° 0.2 mm 1 mps 667 mmHg 82%

    Day after tomorrow, 28 May, Sunday

    Time Temperature Precipitation Wind Pressure Humidity
    00:00 +20°C° 0.2 mm 1 mps 667 mmHg 84%
    01:00 +20°C° 0.2 mm 1 mps 666 mmHg 87%
    02:00 +19°C° 0.1 mm 1 mps 666 mmHg 88%
    03:00 +19°C° 0.1 mm 1 mps 666 mmHg 90%
    04:00 +18°C° 0.1 mm 1 mps 666 mmHg 92%
    05:00 +19°C° 0 mm 1 mps 666 mmHg 89%
    06:00 +20°C° 0 mm 1 mps 667 mmHg 86%
    07:00 +21°C° 0 mm 1 mps 668 mmHg 83%
    08:00 +24°C° 0.1 mm 1 mps 668 mmHg 72%
    09:00 +26°C° 0.1 mm 2 mps 669 mmHg 62%
    10:00 +28°C° 0.1 mm 2 mps 669 mmHg 51%
    11:00 +29°C° 0.1 mm 2 mps 669 mmHg 46%
    12:00 +30°C° 0.1 mm 3 mps 668 mmHg 42%
    13:00 +31°C° 0.1 mm 3 mps 668 mmHg 37%
    14:00 +31°C° 0 mm 2 mps 667 mmHg 38%
    15:00 +31°C° 0 mm 2 mps 667 mmHg 39%
    16:00 +30°C° 0 mm 2 mps 667 mmHg 41%
    17:00 +28°C° 0.3 mm 1 mps 666 mmHg 48%
    18:00 +25°C° 0.3 mm 1 mps 666 mmHg 56%
    19:00 +23°C° 0.3 mm 1 mps 666 mmHg 64%
    20:00 +22°C° 0.2 mm 1 mps 666 mmHg 68%
    21:00 +21°C° 0.2 mm 1 mps 666 mmHg 71%
    22:00 +21°C° 0.2 mm 1 mps 667 mmHg 75%
    23:00 +21°C° 0 mm 1 mps 666 mmHg 76%

    29 May, Monday

    Time Temperature Precipitation Wind Pressure Humidity
    00:00 +20°C° 0 mm 1 mps 666 mmHg 77%
    01:00 +20°C° 0 mm 1 mps 666 mmHg 78%
    02:00 +20°C° 0.1 mm 1 mps 666 mmHg 79%
    03:00 +20°C° 0.1 mm 1 mps 666 mmHg 81%
    04:00 +19°C° 0.1 mm 1 mps 666 mmHg 82%
    05:00 +20°C° 0.1 mm 1 mps 666 mmHg 80%
    06:00 +20°C° 0.1 mm 1 mps 667 mmHg 78%
    07:00 +21°C° 0.1 mm 1 mps 667 mmHg 77%
    08:00 +24°C° 0 mm 2 mps 668 mmHg 65%
    09:00 +26°C° 0 mm 2 mps 668 mmHg 54%
    10:00 +29°C° 0 mm 3 mps 669 mmHg 42%
    11:00 +30°C° 0 mm 3 mps 669 mmHg 39%
    12:00 +31°C° 0 mm 3 mps 668 mmHg 35%
    13:00 +33°C° 0 mm 4 mps 668 mmHg 31%
    14:00 +31°C° 0 mm 3 mps 667 mmHg 34%
    15:00 +31°C° 0 mm 2 mps 667 mmHg 36%
    16:00 +30°C° 0 mm 2 mps 666 mmHg 39%
    17:00 +28°C° 0 mm 2 mps 666 mmHg 43%
    18:00 +26°C° 0 mm 2 mps 666 mmHg 47%
    19:00 +23°C° 0 mm 1 mps 666 mmHg 51%
    20:00 +23°C° 0 mm 1 mps 666 mmHg 51%
    21:00 +22°C° 0 mm 1 mps 666 mmHg 52%
    22:00 +21°C° 0 mm 1 mps 666 mmHg 53%
    23:00 +21°C° 0 mm 1 mps 666 mmHg 55%

    30 May, Tuesday

    Time Temperature Precipitation Wind Pressure Humidity
    00:00 +21°C° 0 mm 1 mps 666 mmHg 56%
    01:00 +21°C° 0 mm 1 mps 666 mmHg 58%
    02:00 +20°C° 0 mm 1 mps 666 mmHg 61%
    03:00 +20°C° 0 mm 1 mps 666 mmHg 65%
    04:00 +19°C° 0 mm 1 mps 665 mmHg 69%
    05:00 +19°C° 0 mm 1 mps 666 mmHg 67%
    06:00 +19°C° 0 mm 2 mps 667 mmHg 66%
    07:00 +19°C° 0 mm 2 mps 667 mmHg 64%
    08:00 +22°C° 0 mm 3 mps 668 mmHg 54%
    09:00 +26°C° 0 mm 3 mps 668 mmHg 45%
    10:00 +28°C° 0 mm 4 mps 669 mmHg 35%
    11:00 +30°C° 0 mm 4 mps 669 mmHg 33%
    12:00 +32°C° 0 mm 4 mps 668 mmHg 30%
    13:00 +33°C° 0 mm 4 mps 668 mmHg 27%
    14:00 +33°C° 0 mm 3 mps 667 mmHg 29%
    15:00 +33°C° 0 mm 3 mps 667 mmHg 30%
    16:00 +31°C° 0 mm 2 mps 666 mmHg 31%
    17:00 +28°C° 0 mm 2 mps 666 mmHg 37%
    18:00 +25°C° 0 mm 2 mps 666 mmHg 43%
    19:00 +22°C° 0 mm 1 mps 666 mmHg 49%
    20:00 +22°C° 0 mm 1 mps 666 mmHg 50%
    21:00 +21°C° 0 mm 1 mps 666 mmHg 51%
    22:00 +21°C° 0 mm 1 mps 666 mmHg 52%
    23:00 +20°C° 0 mm 1 mps 666 mmHg 53%

    31 May, Wednesday

    Time Temperature Precipitation Wind Pressure Humidity
    00:00 +20°C° 0 mm 1 mps 666 mmHg 54%
    01:00 +20°C° 0 mm 1 mps 665 mmHg 55%
    02:00 +19°C° 0 mm 1 mps 665 mmHg 57%
    03:00 +19°C° 0 mm 1 mps 665 mmHg 58%
    04:00 +17°C° 0 mm 2 mps 665 mmHg 60%
    05:00 +18°C° 0 mm 2 mps 666 mmHg 60%
    06:00 +18°C° 0 mm 2 mps 666 mmHg 60%
    07:00 +18°C° 0 mm 2 mps 667 mmHg 60%
    08:00 +21°C° 0 mm 3 mps 668 mmHg 53%
    09:00 +25°C° 0 mm 4 mps 668 mmHg 45%
    10:00 +28°C° 0 mm 4 mps 669 mmHg 38%
    11:00 +29°C° 0 mm 4 mps 669 mmHg 35%
    12:00 +30°C° 0 mm 4 mps 668 mmHg 33%
    13:00 +32°C° 0 mm 4 mps 668 mmHg 30%
    14:00 +31°C° 0 mm 3 mps 667 mmHg 30%
    15:00 +31°C° 0 mm 3 mps 667 mmHg 31%
    16:00 +31°C° 0 mm 2 mps 667 mmHg 31%
    17:00 +28°C° 0 mm 2 mps 666 mmHg 38%
    18:00 +24°C° 0 mm 1 mps 666 mmHg 44%
    19:00 +21°C° 0 mm 1 mps 666 mmHg 50%
    20:00 +21°C° 0 mm 1 mps 666 mmHg 52%
    21:00 +20°C° 0 mm 1 mps 666 mmHg 54%
    22:00 +20°C° 0 mm 1 mps 666 mmHg 56%
    23:00 +19°C° 0 mm 1 mps 666 mmHg 56%
    Show more